Dewpoint
51 52 52 53 54 56 56 57 58 59 59 59 60 60 60 59 60 59 58 58 58 58 59 59 58 58 58 58 57 55 53 51 50 46 48 47 48 48 47 46 46 45 45
50 51 51 53 55 56 56 58 58 59 59 60 60 60 60 60 60 59 58 59 58 58 58 59 59 58 58 57 56 55 54 52 50 49 47 46 47 46 45 43 44 44 43
50 51 53 54 56 56 56 58 60 60 60 60 60 59 60 60 60 59 59 58 59 58 59 59 58 57 57 55 55 54 53 52 50 47 45 45 44 43 42 42 41 41 41
51 52 52 55 56 56 57 58 59 60 60 60 60 59 60 60 59 59 59 58 59 58 58 58 58 57 56 55 54 54 52 51 49 46 44 43 43 41 41 41 40 39 39
52 51 50 54 57 57 56 58 58 59 59 59 58 59 59 59 59 58 58 58 58 58 58 57 57 57 56 56 55 54 51 50 47 45 43 42 42 40 41 40 39 38 37
49 49 50 50 50 51 51 51 52 52 53 54 57 57 56 53 56 58 58 57 57 57 56 56 56 55 54 54 54 53 51 49 47 45 43 42 41 40 39 39 38 36 35
45 46 45 46 46 48 48 49 49 49 49 50 49 49 49 49 51 52 53 54 55 55 56 55 54 53 53 53 52 51 50 49 48 46 43 42 40 39 39 37 37 36 35
43 43 44 43 43 43 43 44 44 46 46 46 46 46 45 46 47 48 48 48 47 47 47 47 48 47 48 49 49 46 45 44 44 44 44 42 40 39 38 37 37 36 36
39 40 41 41 41 41 41 42 43 43 43 43 43 44 44 44 45 45 46 45 45 44 44 44 44 44 45 46 45 44 42 41 42 41 41 40 40 40 38 37 35 35 34
38 38 39 39 39 39 39 39 40 40 40 41 41 42 43 43 45 44 44 43 42 42 42 43 44 43 44 44 43 41 40 38 38 38 38 39 40 40 39 37 36 34 34
37 37 37 37 37 37 37 37 38 38 38 38 39 39 40 41 42 43 42 42 42 41 41 41 42 43 44 43 42 40 39 38 39 37 36 35 35 35 36 36 35 35 34
37 37 37 37 37 37 36 37 37 37 36 36 36 37 37 38 40 42 42 42 40 38 39 40 40 42 43 44 42 41 41 39 37 35 34 32 31 31 31 31 31 33 34
33 34 35 35 36 38 37 37 37 37 37 37 37 37 37 37 37 39 39 41 43 41 40 39 39 39 41 43 43 42 41 36 35 34 33 33 32 32 30 29 29 29 29
32 32 32 33 32 34 35 36 35 34 36 37 36 36 37 38 39 40 40 39 39 39 41 40 40 40 40 41 41 41 39 36 35 34 33 33 31 29 28 28 27 27 26
30 30 29 30 31 32 32 33 33 35 36 36 36 36 35 34 37 40 41 40 40 40 40 38 37 36 36 36 36 37 37 36 35 33 33 32 31 30 28 27 26 26 24
29 29 29 28 27 28 27 25 29 32 33 34 34 35 36 36 36 37 37 38 39 40 37 36 35 35 35 34 34 34 34 35 33 33 32 32 31 30 29 27 26 25 23
29 28 26 27 26 25 23 23 21 24 29 28 29 30 30 31 33 34 35 35 37 39 35 35 34 34 34 33 34 34 33 33 33 32 32 32 31 31 30 27 26 26 25
27 27 23 24 25 24 24 23 24 24 22 22 26 27 29 30 30 29 29 33 31 31 31 31 31 32 33 32 32 32 32 33 32 32 31 31 31 31 30 27 26 26 25
24 25 24 22 23 23 23 22 22 23 21 21 22 23 26 28 26 27 28 27 27 28 28 29 30 31 31 32 32 32 32 31 32 31 31 31 31 31 30 29 27 27 26
23 25 25 22 21 21 21 19 20 21 21 20 20 21 23 24 22 23 25 26 26 25 25 26 27 28 29 30 30 31 31 31 31 31 31 31 31 31 30 28 28 27 27
23 22 24 22 21 21 21 20 20 22 21 21 20 22 23 22 21 22 23 24 24 24 23 24 25 24 26 28 28 29 30 30 31 31 31 31 31 30 30 29 28 28 28
23 21 21 21 22 23 21 21 22 22 20 20 20 21 21 21 21 21 22 22 22 23 22 22 22 22 23 26 27 27 27 29 30 31 31 31 31 31 30 29 29 28 27
23 22 22 22 23 24 22 21 20 20 20 20 20 20 19 20 20 21 22 22 22 23 22 22 21 21 22 23 23 23 23 24 26 30 30 30 31 30 29 28 28 27 26
24 23 22 21 22 22 22 21 22 22 21 20 19 19 20 20 20 20 21 20 20 22 22 21 21 21 23 22 21 19 19 21 26 27 28 30 30 30 29 28 28 27 27
24 24 23 22 22 21 20 20 20 21 21 20 19 19 19 20 20 19 19 19 19 19 20 20 21 23 22 21 18 18 18 22 23 27 27 27 28 28 28 28 28 27 27
25 24 24 23 23 22 22 22 21 21 21 21 20 19 19 19 19 18 18 17 17 18 18 19 21 20 20 19 19 20 23 24 24 24 27 26 25 26 27 26 26 26 26
Wind_Speed
18 19 20 19 21 22 23 25 24 27 28 30 30 29 28 28 23 22 25 24 25 22 18 20 21 17 17 15 14 16 16 12 16 9 9 10 11 13 9 3 3 2 2
13 14 18 18 20 21 19 18 23 29 28 25 28 33 29 29 25 26 26 25 26 22 22 22 22 18 20 17 18 20 19 15 10 17 10 11 12 13 11 7 5 4 5
12 13 16 19 18 20 17 13 15 20 24 21 21 21 21 23 23 22 23 22 21 22 23 24 22 22 20 17 17 17 15 12 10 6 11 4 2 5 3 6 4 5 5
26 17 23 24 18 14 13 17 18 16 17 18 17 14 13 17 18 19 20 19 18 19 19 23 22 23 23 22 20 21 19 17 15 11 8 7 5 4 3 5 9 7 7
25 21 14 6 12 11 7 17 16 13 12 14 13 14 13 13 14 17 15 12 12 15 17 18 18 21 26 25 23 23 20 21 15 16 9 7 10 6 14 8 12 6 4
28 21 22 26 23 20 23 20 22 19 17 14 9 13 13 10 7 9 9 13 13 13 15 14 14 20 21 23 26 20 22 25 22 19 13 13 14 11 10 11 9 7 7
26 25 25 25 25 22 19 22 22 20 20 18 14 16 16 13 13 9 4 4 7 12 13 17 17 15 20 18 20 18 21 18 15 17 15 17 11 11 11 10 11 7 6
28 27 26 26 27 25 25 23 20 16 18 18 16 16 17 15 13 12 10 6 3 2 3 4 3 4 6 12 15 16 14 11 9 8 9 5 4 6 8 7 11 7 2
27 26 25 23 24 23 23 21 18 22 22 20 15 15 17 16 15 14 9 10 4 5 5 5 1 1 6 12 12 13 11 9 11 12 7 8 7 9 10 10 8 8 7
22 22 22 22 23 23 22 21 19 18 18 15 17 16 16 14 14 12 10 8 5 2 2 3 10 9 6 6 6 5 5 4 8 7 7 7 8 9 11 10 11 13 5
21 23 23 23 23 20 19 18 16 18 19 18 18 16 15 14 12 12 13 10 7 4 4 6 6 4 16 15 12 11 5 6 8 7 5 5 4 5 7 7 10 12 13
17 19 22 21 18 18 19 18 19 17 18 16 16 14 13 12 11 10 8 7 5 4 7 8 7 7 6 7 10 11 14 14 13 9 5 5 7 11 12 11 9 9 4
17 17 16 16 14 14 17 16 14 15 15 14 14 13 12 12 11 12 11 9 5 5 6 6 7 8 9 9 12 13 14 9 6 8 12 14 16 13 8 5 4 3 3
15 17 16 16 14 14 14 13 13 13 11 11 11 10 10 11 11 10 10 9 8 7 7 8 7 7 8 7 5 8 6 9 11 12 10 6 5 5 9 8 9 8 6
16 14 15 14 12 12 14 13 11 11 11 10 10 10 11 10 12 13 11 9 9 9 9 5 6 5 7 7 7 7 5 6 10 10 12 12 13 13 13 12 10 9 11
9 9 10 11 10 11 12 10 10 10 12 13 13 11 8 12 14 15 15 14 14 9 6 7 8 8 8 8 9 11 10 11 12 11 12 13 14 15 15 12 10 14 14
7 6 6 9 9 9 10 11 11 9 7 12 12 11 12 12 13 12 14 13 15 12 5 9 10 9 8 9 10 10 11 12 13 15 16 16 15 14 15 14 13 11 12
5 6 7 7 7 7 5 5 5 7 8 8 7 8 10 12 12 12 14 10 9 9 8 10 11 11 11 10 10 10 11 11 12 14 15 15 16 17 15 16 16 15 13
4 4 4 3 3 3 3 3 3 5 6 7 9 8 10 10 9 10 10 7 8 9 11 10 10 11 11 11 11 11 12 11 12 13 13 15 15 16 17 16 16 18 15
3 3 2 2 2 2 1 2 4 5 5 6 6 7 10 8 9 9 7 8 8 8 7 8 10 11 11 11 12 12 12 11 12 13 14 14 14 15 16 16 16 16 15
2 2 1 0 2 3 3 4 3 4 5 5 6 5 8 6 9 9 8 6 8 7 7 8 9 10 11 11 12 11 12 12 13 13 12 12 12 14 14 14 15 16 14
5 4 3 4 3 4 5 5 5 6 6 7 7 5 7 6 7 9 10 10 9 9 8 7 8 10 10 11 11 12 12 12 11 11 10 11 12 12 13 14 13 13 14
6 5 5 5 5 6 6 6 7 7 7 7 7 8 8 8 8 9 10 11 11 11 10 9 10 10 9 9 10 10 11 12 12 12 10 9 8 9 10 11 12 12 13
7 7 7 7 6 7 7 7 7 7 8 8 8 8 8 8 9 10 9 11 12 11 10 11 11 10 9 9 10 12 12 11 11 11 12 9 6 3 5 7 9 10 11
7 7 7 8 8 8 9 9 9 10 9 9 9 8 8 9 10 11 10 10 11 11 12 11 10 8 9 10 11 13 14 14 11 9 9 9 6 5 1 3 5 7 8
7 6 7 7 8 9 10 12 12 12 12 11 9 9 9 10 11 10 11 11 11 11 11 10 9 10 11 11 12 14 13 12 9 7 5 6 7 5 3 2 2 3 5
Wind_Direction
204 204 205 204 204 204 209 213 212 216 212 207 201 202 195 188 192 203 211 205 200 197 193 200 205 195 205 203 202 201 207 185 209 202 183 170 190 192 185 181 201 193 235
222 211 209 216 209 201 200 208 214 215 207 196 193 192 192 189 198 202 207 202 197 194 199 199 204 192 202 206 202 205 210 199 195 218 188 183 192 203 170 195 203 219 230
254 242 214 198 185 194 195 201 185 198 171 170 179 179 176 179 184 192 204 201 193 197 198 200 200 193 202 207 204 200 201 196 206 199 207 171 203 179 191 157 215 241 248
241 236 236 202 185 184 201 192 187 176 159 160 174 182 187 181 188 196 199 201 196 203 199 206 198 191 200 209 208 207 197 203 199 198 189 169 200 170 163 201 220 227 249
100 85 55 129 150 132 86 137 121 129 127 138 150 159 160 169 183 189 194 207 214 217 211 211 210 208 210 202 202 207 196 195 192 192 193 182 191 179 201 192 215 203 259
57 56 56 75 83 74 73 83 85 83 85 80 118 135 114 92 134 173 181 198 212 220 223 231 227 224 220 216 213 210 196 194 193 191 204 207 208 211 167 188 182 186 240
48 48 48 55 59 59 67 72 77 78 79 82 68 92 90 73 70 82 114 171 218 229 229 230 231 228 217 217 220 213 209 201 185 188 200 209 209 203 170 184 196 190 198
46 46 46 49 53 53 54 54 54 65 82 87 84 77 79 65 60 68 72 80 89 64 16 359 328 255 221 219 201 175 158 134 130 157 185 208 194 168 167 180 198 194 148
39 42 45 47 52 53 54 55 55 66 58 63 49 56 70 63 56 51 47 65 63 43 66 65 49 139 158 148 168 170 150 135 97 104 122 122 119 134 139 132 180 183 223
42 42 40 45 53 52 50 48 49 51 52 55 60 53 58 62 50 53 50 45 51 69 67 141 141 132 106 101 105 135 150 137 129 123 112 122 138 139 165 189 187 207 197
39 43 41 38 44 48 53 54 65 68 65 57 55 47 47 43 41 39 35 31 20 1 345 325 323 177 162 159 161 164 192 163 174 174 172 154 125 170 191 207 207 205 203
42 47 47 42 42 45 56 52 52 55 57 54 58 49 36 29 33 36 39 39 33 358 327 315 302 282 260 208 177 176 164 155 160 172 169 211 220 226 223 219 216 226 242
54 55 56 55 45 45 55 49 44 45 49 45 45 45 34 26 24 18 16 8 348 317 317 311 304 295 286 259 217 195 181 171 196 200 199 205 203 202 214 214 201 197 220
59 53 47 49 48 51 44 46 48 41 36 40 31 19 13 18 17 14 12 4 1 359 337 308 302 286 266 263 254 214 196 191 191 201 207 199 171 183 207 190 208 208 228
47 41 41 43 37 38 47 40 38 31 38 34 34 27 14 16 7 8 359 344 345 342 333 334 322 313 291 271 255 244 217 203 214 211 208 212 213 204 204 189 196 199 213
63 47 44 46 42 46 44 33 31 36 45 41 35 36 20 11 3 1 5 357 347 324 345 327 309 304 297 287 266 256 237 230 231 226 219 220 214 208 204 198 199 197 210
75 65 53 51 44 38 36 35 24 11 22 32 29 28 16 1 3 4 2 2 8 3 340 332 326 323 307 294 282 267 261 245 234 227 227 225 221 215 206 201 201 207 215
75 73 66 56 46 45 39 30 18 13 7 7 6 22 18 7 3 5 5 5 5 3 8 358 344 329 314 300 285 270 264 259 248 236 232 228 222 219 205 200 197 202 207
61 55 62 69 64 52 24 11 10 11 11 6 2 4 5 2 16 17 20 25 6 359 351 346 347 340 330 316 303 294 281 271 259 248 244 236 224 216 216 206 201 201 195
41 30 59 49 41 10 352 350 2 4 359 354 352 345 339 1 7 8 7 3 3 350 339 335 338 335 327 320 319 310 298 290 278 263 252 242 229 218 218 203 197 199 200
301 296 312 314 318 323 325 320 311 312 315 321 316 318 335 353 341 340 337 324 331 332 330 325 321 319 318 319 320 318 322 312 289 269 259 248 233 221 216 208 199 195 192
236 245 251 266 279 285 283 278 282 284 290 298 309 317 334 337 328 323 321 319 323 319 315 315 314 318 309 324 333 339 332 320 318 307 282 259 241 227 211 204 197 192 184
223 237 246 253 257 271 276 278 275 279 283 292 304 311 317 315 313 314 313 317 318 317 313 314 318 318 311 316 334 331 327 330 332 329 326 307 269 236 208 202 192 185 181
216 230 243 252 261 270 277 285 282 280 277 282 289 293 298 305 308 310 307 313 314 311 312 313 315 310 311 314 315 319 318 313 321 332 337 340 333 282 210 197 182 180 179
227 241 252 261 272 281 289 290 289 287 285 282 292 294 298 301 304 307 307 310 309 310 309 310 309 308 315 313 311 312 313 314 317 324 342 344 345 359 258 185 175 172 171
228 242 255 265 271 275 278 281 284 288 287 291 296 298 298 298 301 301 306 308 309 308 307 304 303 306 307 308 310 310 313 320 331 332 333 345 354 8 31 82 127 158 174